Location: Peterborough
(44.3091°N, 78.3197°W)
Time: 01:09:26
(UTC-05:00)

Vanguard 1 - Pass Details

Date: 20 April 2024
Orbit: 649 x 3824 km, 34.2° (Epoch: 11 November)

Event Time Altitude Azimuth Distance (km) Brightness Sun altitude
Rises 07:54:05 0° 258° (WSW) 7,600 14.0 15.7°
Reaches altitude 10° 07:59:52 10° 255° (WSW) 6,237 13.6 16.7°
Maximum altitude 08:16:54 54° 186° (S) 2,528 12.4 19.8°
Drops below altitude 10° 08:26:17 10° 112° (ESE) 3,591 14.6 21.4°
Sets 08:28:41 0° 107° (ESE) 4,272 14.8 21.9°
